Location: Pcim
(49.7500°N, 19.9670°E)
Time: 00:51:01
(UTC+01:00)

ISS - Visible Passes

Search period start: 26 January 2020 00:00
Search period end: 05 February 2020 00:00
Orbit: 416 x 423 km, 51.6° (Epoch: 26 January)

Date Brightness Start Highest point End Pass type
(mag) Time Alt. Az. Time Alt. Az. Time Alt. Az.
26 Jan -2.8 16:52:10 10° SW 16:55:19 37° SSE 16:58:28 10° E visible
26 Jan -3.7 18:28:37 10° W 18:31:57 73° NNW 18:31:57 73° NNW visible
27 Jan -3.8 17:41:05 10° WSW 17:44:29 88° N 17:46:24 24° ENE visible
27 Jan -1.2 19:18:04 10° W 19:19:22 21° WNW 19:19:22 21° WNW visible
28 Jan -3.5 18:30:30 10° W 18:33:48 60° N 18:33:48 60° N visible
29 Jan -3.6 17:42:55 10° W 17:46:17 64° N 17:48:13 23° ENE visible
29 Jan -1.2 19:19:53 10° WNW 19:21:11 21° WNW 19:21:11 21° WNW visible
30 Jan -3.6 18:32:19 10° WNW 18:35:36 65° N 18:35:36 65° N visible
31 Jan -3.6 17:44:44 10° W 17:48:06 61° N 17:50:03 23° ENE visible
31 Jan -1.3 19:21:37 10° WNW 19:23:01 23° WNW 19:23:01 23° WNW visible
01 Feb -3.9 18:34:02 10° WNW 18:37:26 88° SSW 18:37:29 87° SE visible
02 Feb -3.8 17:46:27 10° WNW 17:49:51 76° NNE 17:52:00 21° E visible
02 Feb -1.3 19:23:24 10° W 19:24:58 22° W 19:24:58 22° W visible
03 Feb -3.1 18:35:43 10° WNW 18:39:01 49° SSW 18:39:35 43° S visible
04 Feb -3.5 17:48:05 10° WNW 17:51:28 68° SSW 17:54:17 14° ESE visible
04 Feb -1.0 19:25:36 10° W 19:27:16 16° SW 19:27:16 16° SW visible
